Wind_Speed
14 13 13 12 12 12 11 10 9 9 9 8 7 6 6 5 4 5 6 6 7 9 9 8 9 10 13 11 9 10 7 6 8 8 8 8 8 8 8 7 7 7 7 6 6 5 5 6 6 5 5 5 5 4 4 4 4 4 3 3 2 2 1 1 2 3 4 4 5 6 7 8 9 9 9 9 9 9 9 8 8 8 8 8 9
13 12 12 12 11 11 10 10 9 9 8 7 6 6 6 5 5 5 6 7 7 7 8 8 9 12 14 10 9 10 7 6 7 7 7 7 7 7 7 6 6 6 6 5 5 5 4 5 5 5 6 6 5 5 5 5 5 4 3 3 2 2 2 2 3 3 4 5 6 6 7 8 9 9 9 9 9 9 9 8 7 7 7 8 8
12 12 12 11 11 10 10 10 10 10 9 8 8 8 7 6 5 6 7 7 6 6 7 8 9 13 14 10 9 10 6 4 6 6 6 6 6 7 6 6 5 5 5 4 5 5 5 5 5 5 6 6 6 6 6 6 5 4 3 3 3 3 3 3 3 3 4 5 6 7 8 8 9 9 9 9 8 8 9 7 6 7 7 7 8
12 11 11 11 11 10 10 11 11 10 9 9 9 8 7 6 4 5 6 5 5 5 6 6 8 12 14 10 10 10 6 4 5 6 6 6 6 6 6 6 5 5 5 4 4 4 4 5 5 6 6 6 7 6 6 6 5 4 4 3 3 3 3 3 4 5 5 7 7 8 9 9 9 9 8 9 8 7 8 6 5 6 6 7 7
13 12 11 11 11 11 11 10 10 9 9 8 8 7 7 6 5 5 5 5 6 6 5 5 6 10 13 11 11 10 7 5 5 5 6 6 6 6 7 6 6 6 6 5 5 5 5 5 5 6 6 6 6 6 6 5 5 4 4 3 4 4 4 5 6 6 7 7 8 8 9 9 9 9 8 9 8 7 6 4 5 6 6 6 7
14 13 12 12 11 11 11 10 9 8 8 8 7 8 8 7 7 6 5 5 6 5 5 6 7 10 12 12 12 11 9 7 5 5 5 6 7 7 8 7 7 7 7 6 6 6 6 6 6 6 6 6 6 6 6 6 5 5 4 4 5 5 5 6 7 8 8 8 9 9 9 9 9 8 8 9 8 6 5 3 4 6 6 6 6
14 14 13 12 11 11 11 10 9 8 9 9 8 9 9 8 7 7 6 5 8 7 5 7 9 10 10 10 12 12 10 8 7 6 5 6 7 7 8 8 8 8 7 7 7 7 8 8 7 7 7 7 7 7 6 6 6 5 5 5 6 6 7 8 8 9 9 9 9 9 9 9 8 8 8 8 7 6 4 3 4 5 5 5 5
14 14 13 11 10 10 11 11 9 9 9 10 10 10 9 8 8 8 8 7 8 7 5 9 12 11 9 9 11 12 11 10 9 7 5 5 6 6 7 8 8 7 7 8 8 8 9 9 9 9 9 8 8 8 7 7 6 6 6 7 8 8 9 9 9 9 9 9 9 9 9 9 9 8 8 8 7 5 3 2 3 4 4 4 5
14 14 12 11 10 10 11 11 10 9 9 10 10 10 8 9 10 10 9 8 7 6 6 11 14 12 11 9 9 11 11 11 10 8 7 6 6 6 6 7 7 7 8 8 9 9 9 10 10 10 10 10 9 9 8 7 7 8 8 9 10 10 10 10 10 10 10 9 9 9 9 9 9 9 8 7 6 5 3 2 3 4 4 4 5
14 14 13 11 11 11 11 11 10 9 9 9 9 9 9 9 11 11 10 8 7 7 8 12 15 14 12 10 9 9 10 11 11 10 9 7 6 6 6 7 7 7 7 8 9 9 9 10 11 11 11 10 10 10 9 9 9 9 10 11 11 11 11 11 11 11 11 10 10 10 10 9 9 9 8 7 6 5 4 3 3 4 4 4 5
14 13 12 12 11 11 11 11 10 9 9 10 10 10 9 10 11 11 10 9 8 7 7 9 14 15 13 10 9 9 9 11 13 12 10 8 7 7 7 8 8 8 8 8 8 9 9 9 10 11 11 10 10 10 10 10 10 11 11 12 12 12 11 11 11 11 12 11 10 10 10 10 10 10 9 8 7 6 5 4 4 5 5 5 5
14 13 12 11 11 11 11 10 10 10 10 11 12 11 11 12 12 11 11 10 7 7 6 8 14 15 12 10 10 10 10 11 14 14 12 10 9 9 8 8 9 9 9 8 8 8 8 8 9 9 9 9 9 9 10 10 11 11 12 12 12 12 11 11 11 12 12 11 11 11 11 11 11 10 10 9 8 7 6 5 6 6 6 6 6
14 12 11 11 11 11 11 11 10 10 11 12 12 12 12 12 12 12 11 9 7 6 8 13 15 13 10 9 9 9 10 11 13 14 13 12 12 12 10 9 10 10 9 9 8 8 8 8 8 8 8 8 9 9 10 10 11 11 11 12 12 12 12 12 12 12 12 11 11 12 12 12 12 11 11 9 8 7 7 7 7 7 8 8 8
15 12 11 11 12 12 11 11 11 11 11 12 12 13 13 12 12 12 10 9 6 8 13 15 14 12 9 6 4 6 9 9 11 14 15 15 14 15 14 12 11 10 9 9 9 9 8 8 8 8 8 8 8 9 10 10 10 10 10 11 11 11 12 12 12 12 12 12 12 12 13 12 12 12 11 10 9 9 8 8 8 9 9 9 9
15 13 11 10 11 12 12 11 11 11 12 13 13 13 14 13 13 12 10 9 6 10 15 12 11 12 9 4 1 2 4 8 11 13 16 17 17 17 17 16 13 10 9 10 10 10 9 8 8 8 8 8 8 8 9 9 9 9 9 9 10 11 12 13 13 12 12 12 12 13 13 13 13 12 11 10 10 10 10 10 10 10 11 11 11
15 13 12 10 11 12 12 12 12 12 12 13 13 13 14 13 13 11 10 9 7 10 12 9 11 12 6 2 1 2 1 7 11 14 15 16 17 18 19 18 16 12 11 11 10 10 10 10 10 9 9 9 9 9 9 8 7 8 9 9 10 10 11 12 12 12 12 12 12 13 14 13 13 12 12 12 11 11 11 12 12 12 13 12 12
15 14 13 11 10 12 13 12 12 12 11 12 12 12 13 12 12 11 10 8 7 9 11 9 10 10 7 4 2 1 2 4 6 10 15 17 18 19 19 19 18 15 13 12 9 10 11 12 12 11 11 10 10 10 9 9 8 9 10 10 11 11 11 11 10 11 12 12 12 13 13 13 13 13 13 13 13 13 13 13 14 14 14 14 14
15 15 14 12 11 11 12 11 11 11 11 10 11 11 12 12 12 12 9 8 8 9 11 11 9 9 12 10 5 3 3 2 3 3 10 16 19 20 20 19 19 17 15 13 11 10 10 11 12 11 10 10 9 9 9 9 9 10 10 10 11 11 11 10 10 10 11 12 12 13 13 13 14 14 14 14 14 15 15 15 15 15 16 16 16
16 15 14 14 12 11 10 10 11 11 10 10 11 11 11 11 12 12 9 7 9 10 11 11 10 10 13 13 10 8 6 4 4 1 3 8 13 17 20 21 21 19 17 15 13 11 11 12 12 12 11 9 9 8 8 8 8 8 9 9 10 10 11 11 11 11 12 12 13 13 13 14 14 14 15 15 15 16 16 16 17 17 17 17 17
17 16 16 15 13 12 10 10 11 11 11 10 10 11 11 11 12 11 10 9 9 10 10 11 12 11 13 13 10 9 8 7 7 4 3 2 5 8 13 19 23 23 20 17 15 13 13 14 13 12 12 11 9 8 8 7 7 7 7 7 8 9 10 11 11 12 12 12 13 14 14 15 15 16 16 16 16 17 17 17 18 18 18 18 18
18 17 17 16 14 13 12 11 11 12 12 10 10 11 11 11 12 12 11 11 9 8 8 11 11 10 12 13 9 6 5 5 5 3 2 2 2 3 7 12 18 23 23 19 18 16 15 16 15 14 14 13 12 10 9 8 7 7 7 7 8 9 10 10 11 11 12 12 13 14 15 15 16 17 17 18 18 18 18 18 19 19 19 19 20
20 18 18 17 16 15 14 13 12 12 12 11 11 12 12 12 12 12 12 11 10 9 7 8 8 7 10 12 8 5 3 3 3 3 2 2 1 2 6 11 13 19 24 23 20 18 18 18 18 17 16 16 15 14 13 11 10 8 7 8 8 9 10 10 11 12 12 12 13 14 15 16 17 18 18 19 19 20 20 20 20 20 21 21 21
22 20 20 19 18 17 16 15 13 12 12 12 12 12 12 12 11 11 11 12 12 10 9 8 6 6 8 9 7 4 3 3 4 4 3 2 2 1 5 11 14 15 18 21 21 20 19 20 20 19 17 16 16 15 14 13 11 10 9 9 10 10 10 11 12 13 13 14 15 15 16 17 18 19 20 21 21 22 22 22 22 22 22 22 22
24 22 21 21 20 19 18 17 16 15 13 13 13 12 12 12 12 11 11 11 12 12 11 10 7 7 8 8 7 5 4 5 4 3 3 4 3 3 2 5 9 11 12 15 18 19 20 21 20 18 17 16 16 15 15 14 12 12 11 11 11 12 12 13 14 15 16 17 17 18 18 19 20 21 21 23 23 24 25 25 25 25 25 25 25
27 26 24 23 22 21 20 20 19 18 16 15 14 13 13 12 12 12 11 11 12 13 13 12 10 8 8 8 8 8 7 6 6 6 6 6 5 3 2 2 3 5 5 8 12 15 17 19 19 18 17 17 16 15 15 14 13 12 13 13 14 14 14 15 16 17 18 19 20 21 21 21 22 23 23 24 25 26 26 27 27 28 28 28 28
28 27 25 24 23 22 21 20 20 20 19 17 15 14 15 15 13 12 12 12 12 13 14 14 12 11 9 8 8 9 8 6 7 10 11 10 6 4 2 1 1 1 1 3 6 8 11 14 16 17 19 19 18 17 15 13 12 12 13 15 16 16 16 17 18 19 20 21 22 22 23 23 24 24 25 26 27 27 28 29 29 30 30 30 31
28 26 25 25 24 22 22 20 19 20 20 18 16 15 17 17 15 13 12 12 13 14 14 14 14 13 11 9 8 8 7 6 7 8 10 12 10 6 4 2 1 2 2 2 3 5 7 8 8 10 14 17 18 18 15 13 12 12 14 16 18 18 18 19 20 21 22 22 22 23 23 24 24 25 26 27 28 29 29 29 30 30 31 31 31
28 26 25 25 25 23 23 22 20 20 21 20 18 17 17 18 19 18 15 13 14 14 14 15 16 15 13 10 8 9 8 7 6 5 5 10 10 8 6 4 3 2 3 3 3 3 3 3 3 5 8 11 14 16 16 14 12 13 16 17 19 20 20 21 21 22 23 23 23 23 23 24 25 26 27 28 28 28 28 28 29 29 30 31 31
29 27 25 25 25 24 24 23 22 21 21 21 20 20 18 17 20 21 17 15 15 14 14 15 16 15 14 11 9 10 9 9 8 4 1 6 8 7 6 5 4 3 1 2 4 3 2 3 3 4 7 6 8 12 14 13 14 16 18 19 21 22 23 23 24 24 25 25 25 25 25 26 26 26 26 26 26 26 26 27 28 29 30 30 30
29 28 26 25 25 25 24 24 24 24 23 22 22 23 21 17 18 21 19 17 16 15 14 15 16 15 14 12 11 12 11 10 9 6 4 6 7 6 5 5 5 4 4 3 3 4 4 4 3 3 6 7 5 7 10 12 14 17 19 21 22 23 24 24 24 25 25 26 26 26 25 25 24 24 24 24 24 25 26 27 27 27 27 26 26
30 29 28 26 25 26 26 25 25 25 25 25 24 24 24 22 20 21 21 19 18 18 15 15 16 16 15 14 14 14 13 11 10 7 7 8 7 6 6 6 5 5 5 4 2 4 5 4 6 7 7 7 6 7 9 11 13 14 16 18 20 21 22 23 23 22 23 23 23 22 22 22 22 21 22 22 24 24 25 25 26 25 24 22 22
32 31 30 28 27 28 28 27 27 27 27 27 26 26 26 26 25 24 23 21 20 20 18 17 17 17 18 17 16 15 13 13 11 9 8 8 8 7 8 8 6 6 7 6 6 8 11 11 11 10 9 10 10 9 11 12 13 14 15 17 19 20 21 21 21 20 20 20 20 20 20 20 20 20 21 22 23 23 24 24 23 22 21 20 21
35 33 32 31 30 30 30 30 29 29 29 29 29 28 28 28 28 27 26 25 24 23 21 20 19 19 19 20 19 17 14 13 13 12 11 10 9 8 8 9 8 8 9 9 10 12 15 14 12 12 12 13 13 12 14 16 17 18 18 18 18 19 19 19 19 19 19 19 19 20 21 21 21 20 21 22 23 23 23 23 22 22 21 20 20
38 37 36 35 33 32 32 32 32 31 30 30 30 30 30 30 29 28 27 27 27 26 24 23 22 20 20 21 21 19 16 14 14 13 13 13 13 12 11 12 12 11 10 12 12 12 15 16 15 15 15 15 16 16 17 19 21 21 20 19 18 18 18 18 19 19 19 20 21 22 22 22 21 21 21 22 22 22 22 24 25 23 21 19 18
39 39 39 37 36 35 34 34 34 33 32 31 31 31 31 31 31 30 28 27 28 28 28 27 25 23 22 22 23 22 19 17 17 17 16 16 16 16 15 14 14 14 14 14 14 14 16 18 17 17 17 17 18 19 19 20 21 21 21 19 18 18 19 19 20 21 21 22 23 23 23 22 21 21 21 21 21 22 23 24 22 20 19 19 19
39 39 39 38 37 36 36 36 36 35 35 34 33 33 33 32 32 32 31 29 28 28 28 29 28 26 24 24 24 23 21 20 20 20 20 19 19 18 17 16 16 16 16 17 18 17 17 18 19 19 18 19 20 21 21 21 22 21 20 20 20 20 20 20 20 21 22 21 21 21 21 20 20 20 20 20 22 22 21 20 20 21 22 22 22
38 39 39 38 38 37 37 37 37 37 37 36 35 34 34 34 33 33 33 32 31 30 29 28 28 28 27 26 25 24 22 22 22 21 21 21 20 20 19 18 18 17 17 16 17 19 19 20 21 21 19 19 21 22 21 21 23 22 21 21 21 21 20 20 20 20 19 18 19 19 19 19 20 20 21 21 20 18 17 19 21 23 23 23 22
38 39 39 39 39 39 39 39 39 38 38 37 37 36 35 34 34 34 34 33 33 32 31 29 28 27 27 27 26 25 25 24 23 23 23 22 21 21 20 19 19 18 17 16 16 17 19 20 21 21 21 20 22 23 22 21 21 21 22 22 21 20 20 19 17 16 15 18 20 19 20 21 22 22 20 18 15 15 18 20 21 22 21 21 20
39 38 39 39 39 40 41 40 40 40 39 38 38 37 36 35 34 34 34 34 34 33 33 32 30 29 28 27 26 26 27 27 26 25 24 23 22 21 21 20 19 19 18 18 17 16 17 18 19 20 21 21 21 22 23 21 20 20 21 22 22 21 18 14 13 14 17 20 19 19 22 25 22 19 16 15 15 17 19 20 20 20 19 17 16
39 39 39 40 40 40 41 41 41 41 40 39 38 38 37 35 35 34 34 34 34 34 34 33 32 31 30 28 27 27 27 27 28 27 26 25 23 23 22 21 20 20 20 20 19 18 18 18 19 20 20 21 21 22 23 21 19 19 19 20 20 18 14 12 14 16 18 19 19 20 24 24 20 17 16 15 16 18 19 19 19 17 15 15 17
40 40 40 40 40 40 40 41 41 41 40 40 40 39 38 36 35 35 35 34 34 34 34 34 33 32 31 30 29 28 27 26 26 26 26 25 24 24 23 22 21 21 21 21 20 20 19 19 20 20 20 21 23 22 22 20 19 18 18 16 14 12 13 18 20 17 14 15 20 23 25 23 19 16 16 16 17 19 19 18 17 16 16 18 18
40 40 40 39 40 40 41 40 40 40 40 40 41 40 40 38 37 36 35 35 35 34 34 33 33 33 32 32 31 30 28 27 26 26 26 25 25 25 24 24 23 22 22 22 21 21 20 20 20 20 19 21 23 22 20 20 19 16 14 11 9 11 15 19 20 17 12 13 20 24 24 21 17 15 16 16 17 18 17 16 17 17 18 19 18
40 39 39 39 39 40 40 40 40 40 41 41 42 42 42 41 39 37 36 36 35 35 34 33 33 33 33 33 33 32 30 29 28 27 26 26 25 25 25 25 25 24 24 23 24 23 22 21 21 20 18 21 24 22 20 20 19 14 12 11 12 14 14 13 14 15 13 14 19 23 21 18 15 14 14 15 16 17 15 15 17 17 18 18 19
39 39 39 39 40 39 40 40 40 40 41 42 43 43 43 43 41 39 38 37 36 35 35 34 34 33 33 33 33 33 32 31 30 29 28 26 25 25 25 25 25 25 25 26 26 25 24 23 22 21 21 22 24 22 21 21 19 16 15 15 15 15 13 12 13 15 15 16 18 18 17 15 14 12 12 13 15 13 12 15 17 17 18 19 19
39 39 39 40 40 40 39 40 40 41 41 42 43 44 44 44 43 42 39 37 36 36 36 35 35 35 34 34 33 33 33 33 31 30 29 27 26 25 25 26 26 27 28 28 28 28 27 25 24 24 24 23 23 24 24 23 21 19 18 17 16 15 14 14 15 16 17 17 15 14 13 13 11 9 11 14 12 9 11 15 17 17 18 18 18
38 39 39 40 40 41 41 40 41 41 42 43 43 44 45 45 44 43 41 38 36 36 36 36 36 36 35 35 34 34 34 33 32 31 30 29 28 28 28 28 29 29 30 31 31 31 30 28 27 28 27 26 26 27 27 25 24 22 19 18 17 16 15 15 14 16 17 15 12 10 10 9 8 7 12 13 9 8 12 15 17 17 17 17 18
38 39 39 40 40 41 42 41 40 41 42 43 44 44 46 45 45 44 43 40 37 36 36 36 36 36 36 36 35 35 35 34 33 32 31 30 29 30 30 30 29 29 29 30 31 31 31 31 31 30 29 27 27 26 24 24 24 22 20 19 16 15 15 13 14 17 15 11 9 7 6 6 6 9 13 11 6 7 12 15 16 16 15 16 18
37 38 39 39 40 40 41 41 40 41 42 43 44 45 46 45 44 44 43 41 38 36 36 35 35 36 36 36 36 36 36 35 34 33 32 31 31 31 31 31 30 29 29 28 28 29 30 30 30 29 26 24 22 21 20 21 22 23 22 19 16 15 13 12 14 17 13 9 7 6 5 4 7 11 13 9 5 7 14 15 15 15 14 16 17
36 37 38 38 39 40 41 41 41 41 42 43 44 45 45 45 43 43 43 42 39 38 37 36 36 36 36 36 36 36 36 37 36 35 33 32 32 32 31 30 29 28 28 27 26 27 28 28 28 26 23 21 19 18 18 20 22 24 22 18 16 15 13 11 12 14 12 9 6 4 3 3 6 9 10 6 4 8 15 15 13 15 15 16 17
37 37 37 37 38 39 40 42 43 42 42 42 43 45 46 45 44 43 43 41 39 38 38 37 36 36 36 36 36 37 37 38 38 36 34 33 33 33 32 30 27 27 29 29 26 24 25 24 23 22 20 19 18 18 19 19 20 23 23 20 18 16 13 12 12 12 12 10 5 3 3 4 4 7 7 4 3 7 14 13 12 15 15 15 19
38 37 36 36 37 38 39 41 43 43 42 42 43 44 45 45 44 44 42 39 38 38 38 37 36 36 37 37 36 37 38 39 38 37 35 34 34 35 34 31 28 29 32 30 26 23 22 21 20 19 19 19 20 21 20 18 18 21 21 20 18 16 16 16 15 11 7 5 5 3 5 4 3 5 5 4 2 5 10 11 11 14 15 17 21
Wind_Direction
164 162 160 160 159 156 156 154 149 144 142 140 140 134 122 111 114 145 155 154 166 170 174 169 159 167 166 166 184 191 194 189 176 170 163 158 154 153 156 154 157 159 159 164 166 172 176 178 182 186 188 187 185 180 185 197 197 195 197 196 214 239 261 312 336 342 341 341 343 345 346 345 345 346 348 352 352 354 358 2 9 16 21 29 33
169 169 168 167 166 165 162 160 157 150 144 138 142 136 121 116 115 132 145 144 155 162 166 167 162 169 171 174 192 197 204 196 183 178 168 162 153 153 159 156 158 161 162 164 165 171 176 179 189 193 194 197 195 193 198 203 204 205 209 215 234 260 282 320 335 333 331 337 340 337 339 339 340 342 343 345 347 352 358 1 12 22 28 35 38
176 172 172 171 169 169 165 161 159 156 150 142 140 138 135 135 120 121 135 140 151 159 158 160 165 172 175 181 197 202 213 200 189 189 179 173 166 162 163 163 166 167 167 167 170 177 183 186 190 193 199 203 202 201 201 203 209 216 222 227 248 274 297 323 325 323 325 331 333 331 333 334 335 337 337 339 344 350 352 359 20 28 32 37 41
185 177 174 174 169 167 166 163 161 158 152 148 147 145 147 144 129 126 134 142 163 175 170 161 164 174 178 184 196 208 222 210 198 201 193 187 185 181 177 176 178 180 183 182 183 187 191 194 195 200 206 205 203 204 205 208 218 223 231 241 262 284 302 318 318 320 322 322 323 323 326 328 328 330 332 335 340 344 345 0 26 30 34 39 43
187 181 178 177 174 170 170 169 167 160 152 151 150 148 152 152 145 151 154 158 167 168 174 174 169 178 183 188 197 212 226 220 211 208 206 202 199 199 195 194 195 195 199 200 203 206 206 206 208 213 217 215 212 213 216 222 228 235 245 259 273 285 301 309 310 312 311 311 313 315 319 322 323 325 328 330 332 338 343 3 27 28 35 40 43
185 180 179 179 179 178 177 179 176 167 160 157 151 151 158 160 159 169 170 166 174 179 190 186 175 181 186 191 201 214 222 220 218 215 212 210 206 208 207 208 208 207 211 213 216 220 223 224 223 227 233 233 230 225 227 233 237 245 257 271 280 288 297 297 297 299 300 303 306 309 312 313 316 319 321 323 326 332 339 1 22 23 30 38 40
187 181 178 180 183 182 184 187 180 172 169 164 160 161 163 165 168 182 186 174 178 189 206 194 179 181 184 191 203 211 218 220 221 221 218 212 210 211 212 215 216 216 219 221 225 227 230 234 234 238 242 244 244 239 238 241 246 256 266 277 284 287 289 287 289 290 293 298 302 305 306 306 309 312 314 317 320 324 331 358 16 16 20 28 33
189 184 181 183 184 183 186 189 183 178 177 174 173 175 173 172 176 186 187 179 173 174 194 196 186 181 177 182 198 206 213 218 221 222 221 215 210 210 214 216 217 219 224 226 230 232 235 237 239 243 246 249 252 250 247 249 254 261 270 277 278 280 281 282 284 286 289 294 297 299 299 300 302 304 307 309 312 318 321 350 4 2 7 11 16
189 190 189 189 188 185 184 186 187 184 182 178 178 182 180 177 179 182 182 179 172 158 163 181 182 180 177 176 185 197 207 214 220 223 221 216 209 208 211 213 214 217 223 228 231 235 238 240 242 246 249 252 255 257 254 252 255 261 268 271 272 274 275 278 281 283 285 288 290 294 295 296 298 298 299 300 305 311 306 316 342 345 349 351 355
187 191 192 190 189 187 186 188 188 185 179 174 175 179 178 178 179 179 180 177 174 163 153 168 176 177 177 177 179 190 203 210 217 222 221 217 213 212 210 208 212 214 219 227 231 234 239 242 245 247 250 251 254 257 258 257 255 258 262 265 268 269 270 273 279 282 284 285 286 289 290 290 292 292 292 294 300 304 297 292 309 322 329 332 336
183 188 192 191 189 187 186 186 181 178 176 171 171 172 168 170 173 175 179 178 175 169 158 165 172 173 174 177 178 184 197 209 215 219 220 218 216 215 214 214 214 215 219 227 233 236 238 242 246 249 253 254 255 257 257 257 256 254 257 261 265 267 268 271 275 279 283 285 286 286 286 285 284 286 287 289 297 300 291 285 292 303 311 315 320
181 186 192 190 186 184 181 177 172 174 176 171 169 168 163 163 167 171 176 178 172 171 184 184 170 166 170 173 172 181 199 210 214 218 220 220 221 219 217 221 222 221 223 225 231 238 240 243 246 251 256 257 257 258 256 255 255 256 258 262 267 269 269 270 272 274 277 280 281 282 283 281 281 282 283 285 292 295 290 285 284 291 299 303 308
184 182 185 187 184 180 177 172 169 171 172 171 171 170 167 165 166 170 174 176 168 160 181 179 163 156 164 169 169 182 198 208 215 222 225 226 226 225 222 224 228 230 229 228 231 237 240 242 245 248 251 254 254 255 257 257 257 259 263 267 271 273 269 267 270 271 274 277 278 280 281 280 282 281 280 283 288 291 288 284 281 284 290 294 299
190 182 181 187 185 180 177 173 168 166 167 169 172 173 172 170 168 170 174 175 165 151 158 158 153 155 158 157 176 203 211 221 226 228 231 234 233 231 229 227 232 234 232 231 233 235 237 241 245 247 247 248 251 253 256 258 261 265 268 271 273 275 271 266 266 268 270 272 274 277 279 279 280 279 281 284 285 286 284 281 278 279 283 287 291
194 189 184 184 183 180 176 172 165 163 168 170 171 173 175 175 171 172 176 179 170 159 161 158 155 156 147 139 205 228 247 254 246 236 235 235 234 236 235 232 235 237 232 234 238 237 236 239 243 246 248 250 254 256 255 256 264 270 269 270 274 278 276 269 267 268 269 269 271 277 280 281 280 278 282 286 284 283 281 279 278 277 279 283 286
193 191 187 180 177 178 175 170 164 165 171 173 174 173 175 177 177 178 181 186 182 172 177 178 166 160 144 114 132 95 289 261 249 243 240 236 235 237 237 235 235 233 231 235 242 242 239 240 244 247 252 256 258 258 255 254 264 271 268 271 279 284 284 279 273 271 273 274 275 278 282 286 286 284 285 285 282 280 279 278 277 277 277 279 282
193 193 190 183 176 176 176 171 168 170 173 177 179 176 176 178 181 184 185 189 193 190 193 192 181 185 184 153 102 115 240 242 239 243 239 236 237 237 238 237 232 228 229 233 239 242 241 243 246 249 255 258 261 260 254 253 260 267 271 276 283 290 291 286 281 278 279 281 280 280 283 286 287 285 283 281 279 277 277 277 276 277 277 277 279
195 194 192 191 184 180 181 176 172 173 173 177 183 184 180 178 182 188 187 190 200 198 196 198 209 219 210 207 215 228 241 196 165 240 241 237 238 238 239 236 228 226 229 230 235 238 240 247 248 250 256 258 261 264 261 261 262 266 274 280 285 291 293 291 289 288 287 286 286 285 285 285 285 283 280 278 278 277 277 277 277 278 278 279 279
197 196 195 194 192 190 188 184 178 174 173 177 184 189 184 179 184 191 194 201 206 202 199 202 212 218 215 223 238 252 271 243 196 202 232 238 240 235 236 234 226 227 231 229 232 237 239 244 247 247 251 254 258 266 271 273 271 270 276 280 282 287 293 295 293 292 292 290 289 288 287 286 285 284 282 281 280 279 280 281 281 281 281 281 282
200 200 198 196 197 198 196 194 189 182 182 183 185 190 186 182 186 192 200 207 206 205 206 205 206 211 216 227 246 259 268 261 247 231 149 196 254 235 232 231 224 226 232 232 233 238 240 243 247 247 249 252 256 265 275 280 278 273 273 277 280 286 292 296 293 291 292 291 291 290 290 288 287 287 287 287 285 284 284 284 285 285 285 285 285
200 202 202 201 201 202 201 200 198 193 192 190 190 195 193 190 191 193 201 205 201 201 207 206 209 218 219 225 243 252 245 248 250 237 151 146 250 239 221 219 223 228 231 235 237 241 243 245 250 254 253 253 256 263 269 273 275 275 278 283 283 286 290 293 292 291 292 291 291 291 291 291 291 291 291 291 291 290 289 288 288 288 289 289 288
198 203 207 208 206 206 205 203 201 202 201 196 195 200 201 200 198 197 201 206 204 201 200 201 210 220 215 220 233 220 194 202 208 208 206 162 158 262 219 197 212 230 232 234 240 245 247 247 250 255 257 255 255 259 263 267 273 282 292 293 290 289 290 291 291 293 294 294 293 293 293 293 294 294 295 294 294 294 293 292 291 291 291 291 291
199 204 208 211 212 211 209 205 203 205 207 204 200 202 206 206 203 201 205 209 208 208 205 198 206 216 213 222 231 211 177 179 185 179 188 179 142 284 232 200 210 232 236 237 242 247 249 247 248 253 257 258 258 259 263 268 275 286 293 293 292 292 291 292 294 295 297 298 297 297 296 296 297 297 298 298 297 297 296 295 295 294 294 293 293
201 205 208 209 212 214 212 208 205 206 208 208 203 202 207 208 208 207 207 209 212 216 214 209 209 209 211 218 222 221 207 203 216 201 202 224 210 201 203 193 215 237 244 241 242 245 246 245 247 253 257 260 262 263 266 269 276 284 288 291 293 293 293 295 297 299 301 301 301 300 300 300 300 300 300 300 300 299 299 298 297 296 295 295 294
201 205 207 208 210 212 211 209 207 206 205 206 206 204 207 210 211 210 207 207 213 219 222 220 213 208 216 221 219 226 229 238 272 280 259 249 234 208 186 167 209 233 236 234 237 242 245 245 248 254 258 261 264 267 267 269 276 284 287 292 297 297 297 298 300 301 302 303 303 302 302 303 303 304 304 304 303 303 302 300 299 298 296 295 295
202 205 207 208 211 211 210 209 208 206 203 204 210 214 213 212 210 208 209 211 213 217 222 222 215 212 222 230 231 237 247 274 299 293 275 255 230 204 203 223 240 217 207 232 242 247 250 253 257 259 260 263 266 267 268 268 278 292 293 294 298 299 299 301 302 304 305 305 305 304 304 304 306 307 308 308 308 307 306 305 303 301 300 298 296
204 207 208 209 212 213 212 212 208 204 202 203 212 219 216 215 213 209 211 216 217 217 219 218 215 216 224 234 243 247 255 284 307 301 278 257 241 232 228 225 256 314 321 275 261 266 267 272 278 274 269 267 266 265 266 269 282 299 298 294 297 301 302 303 305 307 308 309 309 308 309 309 309 311 312 312 313 312 312 311 309 307 305 303 301
207 209 210 211 213 214 215 216 209 201 201 202 210 216 215 217 218 214 212 214 214 215 217 217 217 219 225 234 243 246 254 276 296 311 273 246 244 245 236 210 206 286 334 327 294 285 282 293 322 325 305 283 269 264 262 267 284 301 303 298 301 304 305 305 306 307 309 310 311 311 311 311 311 312 314 315 316 316 316 316 315 313 311 309 307
211 211 212 214 216 216 218 219 212 204 204 205 207 212 216 217 215 213 212 210 211 214 215 216 217 220 224 229 240 247 255 267 275 292 257 221 223 228 235 236 223 209 200 313 295 266 269 304 322 347 354 333 287 268 260 267 286 299 301 300 302 304 306 307 307 307 307 307 308 309 309 310 310 311 314 315 316 316 316 317 317 317 316 315 313
215 214 214 216 217 219 220 220 215 209 209 210 208 211 215 216 211 210 212 213 214 216 216 215 215 217 222 228 238 246 251 257 256 252 227 205 207 219 238 259 254 216 187 203 275 275 274 300 306 319 351 358 326 278 267 277 293 300 302 303 304 306 308 309 307 307 306 305 306 308 309 310 311 312 314 315 316 317 318 320 320 321 321 321 320
217 216 216 217 219 220 221 222 218 213 212 213 211 211 214 216 213 209 212 215 216 217 219 219 215 216 222 229 237 241 244 250 247 237 223 215 226 244 252 259 254 239 223 199 214 273 271 286 302 306 320 329 318 294 285 291 302 307 309 309 308 309 310 310 310 309 308 308 310 311 313 315 316 317 318 319 321 321 322 324 325 327 327 326 325
218 218 219 220 221 222 223 223 222 218 215 214 215 215 216 219 218 215 213 214 215 217 220 222 220 219 223 227 233 236 241 248 245 234 226 229 243 253 257 263 255 245 248 228 222 262 279 290 299 306 319 321 317 312 308 313 318 318 316 314 312 312 312 313 314 315 315 316 317 319 321 324 326 326 325 325 325 326 328 331 334 334 330 326 326
219 219 220 223 225 225 225 224 224 222 220 217 217 218 220 221 222 222 219 217 218 219 220 222 224 225 226 226 229 232 238 246 244 238 237 242 249 253 253 257 257 251 250 240 238 264 287 299 304 310 320 321 319 322 324 324 327 328 326 324 322 320 319 319 320 322 323 323 324 325 327 329 330 329 328 329 331 333 335 337 338 337 333 329 327
220 220 222 224 226 227 226 226 225 224 224 222 219 220 222 223 224 225 223 221 221 222 222 222 223 226 228 228 228 228 232 240 241 238 241 243 248 253 251 249 253 257 254 250 246 256 279 295 304 310 316 319 318 322 326 325 326 330 331 330 329 326 323 323 322 324 327 328 328 328 329 329 329 328 329 333 336 337 336 336 336 338 338 336 336
220 221 223 224 226 226 226 227 227 225 225 224 222 221 222 225 225 225 225 224 223 222 222 223 223 224 227 230 229 226 228 235 238 237 240 243 247 251 251 248 250 255 259 258 254 252 266 283 295 301 308 314 315 317 320 321 323 327 328 328 328 326 326 325 323 325 329 331 329 328 328 330 331 331 332 336 337 335 335 338 342 348 352 352 352
220 221 223 224 225 225 225 226 226 225 224 224 224 223 224 226 226 226 226 226 225 223 223 224 224 224 226 230 228 225 227 234 237 238 240 243 246 247 250 249 249 255 262 261 260 259 261 272 283 292 300 306 308 311 315 316 320 323 324 324 324 326 328 329 328 328 330 330 330 331 333 335 336 337 338 337 337 338 343 351 359 3 4 1 356
220 221 221 222 223 224 225 225 225 225 224 224 223 224 225 226 226 227 226 227 228 227 227 226 226 225 228 231 229 226 229 235 237 239 241 244 245 245 247 249 249 255 262 262 262 263 260 264 275 285 293 298 301 306 309 313 318 320 320 321 325 327 328 330 330 329 329 334 338 341 342 341 340 339 339 340 343 353 3 9 10 9 6 1 355
220 220 221 221 222 223 225 226 226 226 226 224 223 224 225 225 226 227 227 228 229 230 230 230 229 229 230 233 233 230 230 234 237 238 241 244 245 245 245 248 250 255 261 263 263 263 261 263 270 280 288 293 297 301 306 312 315 315 316 319 326 330 330 332 333 331 332 338 342 344 344 343 343 342 346 354 6 16 18 17 14 9 5 1 358
219 220 220 221 222 223 224 225 226 226 226 225 224 225 225 225 225 226 227 228 230 231 232 233 233 234 235 236 237 236 234 234 237 239 241 243 244 244 245 248 251 254 259 264 265 264 264 266 271 278 285 291 294 298 303 308 309 310 315 318 322 330 334 337 341 337 333 335 340 344 345 346 350 355 6 19 24 23 21 17 12 9 7 6 6
220 220 220 221 221 223 224 225 226 226 226 225 225 225 225 225 225 226 227 228 230 232 233 234 235 237 239 240 241 242 241 239 239 240 242 244 244 245 248 251 252 252 256 262 264 264 265 268 273 278 282 287 290 293 298 302 303 310 318 317 318 328 338 337 335 335 334 335 339 343 345 350 358 10 21 28 27 23 19 15 13 14 14 12 10
222 221 221 222 222 222 224 225 226 226 226 225 225 225 225 224 224 226 228 229 231 232 233 235 236 238 240 242 244 246 247 246 244 244 245 246 247 247 250 252 252 253 257 259 260 262 265 267 271 275 278 282 285 289 294 298 302 310 316 314 314 326 331 325 325 331 338 339 337 339 344 352 360 12 23 26 25 22 18 17 21 22 19 17 17
223 222 222 222 222 222 223 224 225 225 225 226 227 227 227 226 225 225 227 229 230 232 233 234 236 238 240 242 245 248 249 250 250 249 249 251 251 252 252 253 254 255 256 257 257 260 261 262 266 270 273 277 282 287 291 297 304 309 310 309 311 320 323 321 323 332 341 338 333 335 342 352 0 12 23 26 23 22 23 26 27 23 21 20 18
224 223 222 221 222 222 223 224 224 224 225 227 228 228 229 229 227 225 225 227 229 231 233 234 235 237 239 241 244 246 248 250 252 252 253 254 255 256 255 254 254 255 255 255 256 258 258 258 261 265 266 271 280 286 290 295 301 301 297 298 302 310 318 317 316 323 329 330 331 332 339 353 4 13 27 31 24 25 31 32 27 22 20 17 10
224 223 222 222 222 222 223 224 224 224 225 227 228 229 230 230 229 227 225 226 228 230 231 233 235 238 239 240 242 244 246 249 251 253 254 255 255 256 256 255 255 254 255 255 256 258 258 257 260 263 264 270 279 285 289 293 296 295 293 293 296 303 308 303 298 307 317 324 330 330 335 354 9 20 35 31 21 31 41 30 22 21 18 11 6
223 223 222 222 222 222 222 223 224 225 226 227 228 229 230 231 231 229 226 226 227 229 231 232 234 237 238 239 241 243 246 248 249 252 254 255 255 254 255 257 256 256 256 256 257 259 260 260 261 264 268 272 277 284 291 292 292 292 291 292 295 298 297 295 295 303 314 325 333 328 330 352 16 27 26 21 24 43 42 23 17 17 12 5 4
222 223 222 222 222 222 223 223 224 226 227 227 228 229 230 232 232 230 228 227 228 230 231 232 234 235 237 238 239 242 245 247 247 249 251 253 254 255 256 258 258 258 257 257 257 257 257 258 260 265 272 276 280 288 295 294 290 290 288 290 295 293 290 291 294 300 312 329 338 327 325 353 21 15 9 18 38 52 36 20 13 12 9 4 5
222 223 223 222 222 222 223 224 224 226 227 228 228 229 230 231 232 231 229 228 229 232 233 233 234 236 237 237 239 241 244 246 247 248 249 251 252 254 256 258 260 261 259 258 258 257 257 258 261 266 273 280 285 291 294 292 291 291 289 289 291 288 285 285 288 297 312 330 337 324 321 347 4 357 3 21 52 46 29 18 10 12 11 6 7
222 223 223 223 223 223 223 223 224 226 228 229 228 229 230 231 231 231 229 228 229 232 234 235 235 237 238 238 239 241 243 246 248 249 249 250 250 252 255 257 259 261 261 261 261 260 259 260 263 268 274 281 285 286 285 285 285 287 287 286 283 278 271 273 286 299 311 324 323 313 310 334 348 349 359 24 63 38 24 16 11 14 10 8 10
221 222 222 223 223 223 223 223 224 226 228 229 229 229 230 230 229 228 228 228 229 232 235 237 238 238 239 239 240 241 243 245 249 250 250 249 249 249 252 254 257 260 262 264 265 264 264 263 264 268 272 275 275 274 276 277 276 279 277 269 267 266 259 264 284 295 302 308 307 300 301 331 349 351 0 29 78 34 22 18 13 12 10 11 12
220 221 222 223 223 223 223 223 224 225 228 229 229 229 230 229 228 227 226 227 228 232 235 237 239 240 241 241 241 242 243 246 249 250 249 247 246 247 249 251 254 258 261 265 266 267 266 265 265 266 266 266 266 269 273 272 272 274 268 259 263 263 255 261 272 278 289 292 270 267 317 338 358 3 10 40 84 31 26 25 14 9 12 12 7
219 221 221 222 223 223 224 224 224 225 227 229 229 230 230 229 227 226 225 225 227 231 235 238 240 241 242 242 243 243 245 248 250 250 249 247 246 247 249 250 251 255 260 264 265 265 265 264 261 258 256 259 265 271 273 270 269 270 267 264 265 259 256 265 265 262 276 262 217 262 316 332 14 30 35 50 54 15 27 34 21 11 12 9 6
Height
856 856 857 857 857 857 857 857 857 857 858 858 858 859 859 859 859 860 860 861 861 861 861 862 863 863 864 864 864 865 865 866 866 866 867 867 868 868 869 870 870 870 870 871 871 871 871 871 871 870 870 870 870 870 870 869 869 869 869 870 870 869 869 869 869 869 869 868 868 868 867 867 866 865 864 864 863 862 861 861 860 859 859 858 857
856 857 857 858 858 858 858 858 858 858 859 859 859 859 860 859 860 860 861 861 861 861 862 862 862 863 864 864 865 865 866 866 867 867 868 868 869 869 870 870 871 871 871 871 871 871 871 871 871 871 871 870 870 870 870 870 869 870 870 870 870 870 870 870 870 870 869 869 869 868 867 867 866 865 864 864 863 863 862 861 861 860 859 859 858
857 857 857 858 859 859 859 859 859 859 859 860 860 860 860 860 860 861 861 861 862 862 862 862 863 863 864 865 865 865 866 867 867 868 868 869 869 870 870 871 871 871 872 872 872 871 871 871 871 871 871 870 870 870 870 870 870 870 871 871 871 871 871 871 870 870 870 869 869 868 867 867 866 865 865 864 863 863 862 862 861 860 860 859 859
857 858 858 858 859 859 859 859 859 859 860 860 860 860 860 860 861 861 862 862 862 862 863 863 863 864 864 865 865 866 867 867 868 868 869 869 869 870 870 871 871 872 872 872 872 871 871 871 871 871 870 870 870 870 870 870 871 871 871 872 872 872 872 871 871 871 870 870 869 868 867 867 866 865 865 864 864 863 862 862 861 861 861 860 859
857 858 858 858 859 859 859 859 860 860 860 860 860 861 861 861 861 862 862 863 863 863 863 863 864 864 864 865 866 866 867 867 868 868 869 869 870 870 871 871 871 872 872 872 872 872 872 871 871 871 871 871 871 871 871 871 871 872 872 873 873 872 872 872 871 871 870 869 869 868 867 867 866 866 865 864 864 863 863 862 862 861 861 860 859
857 858 858 858 859 859 859 859 860 860 860 861 861 861 861 862 862 863 863 863 863 863 864 864 864 864 865 866 866 867 867 868 868 869 869 870 870 871 871 871 872 872 872 872 872 872 872 872 871 871 871 871 871 872 872 872 872 873 873 873 873 873 872 872 871 870 870 869 868 868 867 867 866 866 865 864 864 863 863 862 862 862 861 860 860
857 858 858 858 858 859 859 859 860 860 861 861 861 862 862 862 862 863 863 864 864 864 864 865 865 865 865 866 867 867 868 868 869 869 869 870 870 871 871 871 872 872 872 872 872 872 872 872 872 871 871 871 872 872 872 873 873 874 874 874 873 872 872 871 870 870 869 869 868 868 867 867 866 866 865 864 864 863 863 862 862 862 861 860 860
857 858 858 858 858 858 859 860 860 860 861 861 862 862 862 862 863 863 863 864 864 864 865 865 865 865 866 866 867 868 868 869 869 869 870 870 870 871 871 871 871 872 872 871 871 871 871 871 871 871 871 872 872 872 873 873 874 874 874 873 872 872 871 870 870 869 869 869 868 868 867 867 866 865 864 864 863 863 862 862 862 862 861 860 860
857 858 858 858 858 858 859 859 860 860 861 861 861 862 862 862 863 863 863 863 864 864 864 864 865 866 866 867 867 868 868 869 869 869 870 870 870 871 871 871 871 871 871 871 871 871 871 871 871 871 871 872 872 872 873 873 874 874 873 872 871 871 870 870 869 869 869 868 868 867 867 866 865 865 864 864 863 863 862 862 862 861 861 860 859
857 857 858 858 858 859 859 859 860 860 861 861 861 862 862 862 863 863 863 864 864 864 865 865 866 866 867 868 868 868 869 869 869 869 870 870 870 870 870 871 871 871 871 871 871 871 871 871 871 871 871 872 872 872 873 873 873 872 872 871 871 870 870 870 869 869 869 868 868 867 867 866 865 864 864 863 863 862 862 862 862 861 861 860 859
857 857 858 858 858 859 859 859 860 860 860 861 861 862 862 862 863 863 864 864 864 865 866 866 867 867 868 868 868 869 869 869 869 869 870 870 870 870 870 870 870 870 870 870 871 871 871 871 871 871 871 871 872 872 872 872 872 871 871 870 870 870 870 869 869 869 868 868 867 867 866 865 865 864 864 863 863 863 862 862 862 861 861 860 859
857 857 857 858 858 859 859 859 860 860 860 861 861 862 862 862 863 863 864 864 865 865 866 866 867 868 868 869 869 869 869 869 869 869 870 870 870 870 870 870 870 870 870 870 871 871 871 871 871 871 871 871 872 872 872 871 871 870 870 870 869 869 869 869 869 868 868 867 867 866 865 865 864 864 864 863 863 862 862 862 861 861 860 860 860
856 857 857 857 858 859 859 859 860 860 860 861 861 862 862 863 863 863 864 865 865 865 865 866 867 868 869 869 869 869 870 870 870 870 870 870 870 870 870 870 870 870 870 871 871 871 871 871 871 871 871 871 871 871 871 870 870 870 869 869 869 869 869 868 868 868 867 867 866 866 865 864 864 863 863 863 862 862 862 862 861 861 860 860 859
856 857 857 857 858 858 859 859 860 860 860 861 861 862 862 863 863 864 864 865 866 866 866 866 867 868 868 869 870 870 870 870 870 870 869 870 870 870 870 870 870 870 870 871 871 871 871 871 871 871 871 871 871 870 870 870 869 869 869 869 869 868 868 868 867 867 867 866 866 865 864 864 863 863 863 862 862 861 861 861 861 860 860 859 859
856 856 857 857 857 858 859 859 860 860 860 861 861 862 862 863 863 864 864 865 865 866 866 866 867 868 869 871 871 871 872 870 869 870 869 870 870 870 870 870 870 870 870 870 870 871 871 871 871 871 871 871 870 870 870 869 869 869 869 869 868 868 867 867 867 866 866 865 865 864 864 863 863 862 862 861 861 861 860 860 860 859 859 859 858
855 856 856 857 857 858 859 859 859 860 860 861 861 861 862 862 863 863 864 865 865 866 866 867 867 867 869 871 872 874 876 872 869 869 869 869 870 869 869 869 870 870 870 870 870 870 870 871 870 870 870 870 870 869 869 869 869 869 869 868 868 868 867 866 866 865 865 864 864 863 863 862 862 862 861 861 860 860 860 859 859 859 858 858 857
854 855 856 856 857 858 858 859 859 860 860 861 861 862 862 862 863 863 864 864 865 865 866 867 867 867 868 870 873 876 876 871 869 869 868 868 869 868 868 869 869 870 870 870 870 870 870 870 870 870 869 869 869 869 868 869 868 868 868 868 868 867 866 866 865 865 864 864 863 862 862 861 861 861 860 860 859 859 859 858 858 857 857 857 856
854 855 855 856 857 857 858 858 859 859 860 861 861 861 862 862 863 863 864 864 865 865 866 866 867 867 867 868 870 872 871 869 871 871 868 867 868 868 868 868 869 869 869 870 869 869 869 869 869 869 869 869 868 868 868 868 868 868 868 867 867 866 865 865 865 864 864 863 862 862 861 860 860 859 859 858 858 858 858 857 857 856 856 855 855
853 854 855 855 856 857 858 858 859 859 860 860 861 861 862 862 862 863 863 864 865 865 866 866 866 867 867 867 867 867 868 868 869 871 870 869 867 867 867 867 868 869 869 869 869 869 869 869 869 868 868 868 868 868 867 867 867 867 867 866 866 865 865 864 864 864 863 862 862 861 860 860 859 858 858 858 858 857 857 856 856 855 855 854 854
852 853 854 855 856 857 857 858 858 859 860 860 861 861 861 862 862 863 863 864 864 865 865 866 866 866 866 867 867 867 867 867 867 868 870 870 868 866 866 867 868 869 869 869 869 869 868 868 868 867 867 867 867 867 867 867 867 866 866 865 865 864 864 864 863 863 862 862 861 860 859 859 858 858 857 857 857 857 856 855 855 854 854 853 852
851 852 853 854 855 856 857 857 858 859 859 860 860 861 861 861 862 862 863 863 864 865 865 865 865 866 866 866 866 866 866 866 867 866 866 868 869 867 866 867 868 868 868 868 868 868 867 867 867 867 867 867 867 867 866 866 866 865 865 864 864 864 863 863 863 862 862 861 860 859 859 858 858 857 856 856 856 855 855 854 854 853 852 852 851
850 851 852 853 854 855 856 857 857 858 859 859 860 860 860 861 861 862 862 863 864 864 864 865 865 865 865 865 866 866 866 866 866 866 865 866 867 866 865 866 866 866 866 866 867 867 867 866 866 866 866 866 866 866 866 866 865 865 864 864 863 863 863 862 862 861 861 860 859 859 858 857 857 856 855 855 854 854 854 853 852 851 851 850 849
849 850 851 852 853 854 855 856 857 857 858 859 859 860 860 860 861 861 862 862 863 863 864 864 864 864 864 865 865 865 865 866 866 865 865 864 865 865 864 864 864 864 864 865 865 865 866 865 865 865 865 865 865 865 865 865 865 864 864 863 863 862 862 861 861 861 860 859 859 858 857 857 856 855 855 854 853 852 852 851 851 850 849 848 847
848 849 850 851 852 853 854 855 856 857 857 858 858 859 859 860 860 860 861 861 862 863 863 864 864 864 864 864 865 865 865 865 865 865 864 864 864 864 863 864 864 864 864 864 864 864 864 864 864 863 864 864 864 864 864 864 864 863 863 862 862 862 861 860 860 859 859 858 858 857 856 856 855 854 853 852 852 851 850 849 848 848 847 846 845
845 846 848 849 850 851 852 853 854 855 856 857 858 858 859 859 859 860 860 860 861 861 862 863 863 863 863 864 864 864 864 864 865 865 864 864 864 864 863 864 864 864 864 864 863 863 863 863 863 863 863 863 863 864 864 864 863 862 862 861 861 861 860 859 859 858 858 857 856 856 855 854 854 853 852 851 850 849 848 847 846 846 845 844 843
842 844 845 847 848 849 851 852 853 854 855 856 856 857 858 858 859 859 859 860 860 861 861 862 862 863 863 863 863 863 864 864 864 864 864 864 863 863 863 864 864 863 863 863 863 862 862 862 862 862 862 862 862 863 863 863 862 862 861 860 860 860 859 858 858 857 857 856 855 854 854 853 852 851 850 849 848 847 846 845 844 843 842 842 841
840 842 844 845 847 848 849 851 852 853 854 854 855 856 857 857 858 858 859 859 859 860 860 861 861 862 862 863 863 863 863 864 863 863 862 863 863 863 863 864 865 864 863 862 862 862 861 861 861 861 861 861 861 862 862 862 861 861 860 860 859 859 858 857 857 856 855 855 854 853 852 851 850 850 849 847 846 845 844 843 842 841 840 839 838
839 841 842 844 845 846 848 849 850 851 852 853 854 854 855 856 857 857 858 858 859 859 859 860 860 861 862 862 862 862 863 863 863 862 861 861 862 863 862 863 865 866 865 864 862 861 861 861 861 861 860 860 860 861 861 861 861 861 860 859 858 858 857 857 856 855 854 853 853 852 851 850 849 848 847 846 845 843 842 841 840 839 838 837 835
838 840 841 842 843 845 846 847 848 850 851 852 852 853 854 854 855 856 857 857 858 858 858 859 859 860 860 861 862 862 862 862 862 862 861 861 862 862 862 862 863 865 866 867 864 861 861 861 861 861 860 860 860 860 861 861 861 860 860 859 858 857 856 856 855 854 853 852 851 850 850 849 848 847 846 845 843 842 841 840 838 837 836 834 833
837 838 840 841 842 843 844 845 847 848 849 850 851 852 852 853 854 855 856 856 857 857 858 858 858 859 859 860 861 861 861 862 862 862 861 861 861 861 862 862 862 862 864 866 865 861 861 861 861 861 861 860 860 860 861 861 860 860 859 858 857 856 855 854 854 853 852 851 850 849 848 847 847 846 844 843 842 841 840 838 837 835 834 833 831
835 836 838 839 840 841 842 843 845 846 847 848 849 850 851 852 852 853 854 855 856 856 856 857 857 858 858 859 860 860 860 861 861 861 861 861 861 861 861 861 861 862 862 864 864 862 860 861 861 861 861 860 861 860 860 860 860 859 858 857 856 855 854 853 852 852 850 849 849 848 847 846 845 844 843 842 840 839 838 837 835 834 832 831 829
833 834 836 837 838 839 840 841 843 844 845 846 848 849 849 850 851 852 853 854 854 854 855 856 856 857 857 858 858 859 859 859 859 860 860 860 860 860 861 861 861 861 861 862 863 861 860 860 860 860 860 860 860 860 859 859 859 858 857 856 855 854 853 852 851 850 849 848 847 847 846 845 844 843 841 840 839 838 836 835 834 832 831 829 828
831 832 834 835 836 837 838 839 840 842 843 844 846 847 848 848 849 850 851 852 852 853 854 854 855 855 856 856 857 857 858 858 858 858 859 859 859 859 860 860 860 861 861 861 861 859 858 859 859 859 859 859 859 859 858 858 857 857 856 855 854 853 852 850 849 849 848 847 846 845 845 844 843 842 840 839 838 836 835 833 832 831 829 827 826
829 830 831 832 834 835 836 837 838 839 841 842 843 845 846 846 847 848 849 850 850 851 852 852 853 854 854 854 855 856 856 857 856 857 857 857 858 858 859 859 860 860 860 860 860 859 858 858 858 858 858 858 858 858 857 856 856 855 855 854 853 852 851 849 848 847 846 846 845 844 844 843 842 841 840 838 837 835 833 832 830 828 827 825 824
826 827 829 830 831 832 833 834 835 837 838 839 841 842 843 844 845 846 846 847 848 849 849 850 851 852 852 853 853 854 855 855 855 856 856 856 857 857 858 858 859 859 859 859 859 859 858 857 857 857 857 857 857 857 856 856 855 855 854 853 852 851 849 848 847 846 845 845 844 843 843 842 841 840 838 837 835 834 832 830 828 827 825 824 822
823 825 826 828 829 830 831 832 833 834 835 836 838 839 840 842 842 843 844 845 846 846 847 848 849 850 850 851 851 852 853 853 854 854 855 855 855 856 856 857 857 858 858 859 858 858 858 857 856 856 857 856 856 856 855 855 854 854 853 852 851 850 848 847 846 845 844 843 843 842 841 841 840 838 837 836 834 832 830 829 827 825 824 822 820
821 822 824 825 827 828 828 829 830 831 832 833 835 836 837 839 840 841 842 843 844 844 845 846 847 848 848 848 849 850 851 852 852 853 853 854 854 854 855 855 856 857 857 858 858 857 857 857 856 856 856 855 855 854 854 853 852 852 851 851 850 848 847 846 845 843 843 842 841 840 840 839 838 837 835 834 832 831 829 828 826 824 822 821 819
818 820 821 822 824 824 825 826 827 828 829 831 832 833 835 836 838 839 840 841 842 842 843 844 845 846 846 847 847 848 849 850 850 851 852 852 853 853 853 854 855 855 856 856 857 857 856 856 855 855 854 854 854 852 853 853 851 850 849 849 848 847 846 845 844 843 841 841 840 839 838 837 836 835 834 833 831 830 829 827 825 823 822 820 819
815 817 818 819 821 821 823 824 825 826 827 828 830 831 833 834 835 837 838 839 840 840 841 842 843 844 844 845 846 846 847 848 848 849 850 851 851 852 852 853 854 854 854 855 855 856 855 855 855 854 853 853 853 851 851 851 850 849 848 846 846 845 845 843 843 842 841 840 839 838 837 836 835 834 833 832 831 830 829 827 825 823 822 820 819
812 813 814 816 817 819 820 821 822 823 825 826 827 828 830 831 833 834 835 837 837 838 839 840 841 842 842 843 844 844 845 846 846 847 848 849 850 850 851 852 852 853 853 854 854 854 854 854 853 853 852 852 851 850 850 850 849 849 848 846 845 844 843 842 842 841 840 838 838 837 837 835 834 833 832 831 830 829 828 827 825 824 822 820 819
809 810 812 813 814 815 817 818 819 821 822 823 824 825 827 828 830 832 833 834 835 836 836 837 838 839 840 841 842 842 843 844 844 845 846 847 848 849 849 850 851 851 852 852 852 852 853 852 852 851 851 850 849 849 848 848 848 847 847 846 845 843 842 841 840 840 839 838 836 835 835 834 833 832 831 831 830 829 828 827 825 824 822 820 819
807 808 809 811 812 813 814 815 817 818 819 820 821 822 824 825 827 829 830 831 832 833 834 835 836 837 838 839 839 840 841 841 842 843 844 845 846 847 848 848 849 850 850 850 851 851 851 850 850 850 849 848 847 847 847 846 846 846 846 845 844 843 842 840 838 838 838 837 835 833 833 833 832 832 831 830 830 829 828 827 825 824 822 820 819
804 805 807 808 808 810 811 812 813 814 815 816 817 819 821 822 824 825 826 828 829 830 831 832 833 834 835 836 837 838 839 839 840 841 842 843 844 845 845 846 847 848 848 848 848 848 848 848 847 848 847 846 845 845 846 845 845 845 844 844 843 842 841 840 838 837 836 836 835 833 832 832 832 831 830 830 830 829 828 827 825 824 822 820 818
800 802 803 804 805 807 808 809 810 811 812 813 814 816 817 819 821 822 824 825 826 827 829 829 831 832 832 833 834 835 836 837 838 839 839 840 841 842 843 844 844 845 846 846 846 846 846 846 845 845 845 844 844 844 844 844 843 843 843 842 842 841 840 839 837 836 835 835 834 832 832 831 831 830 830 830 829 828 827 826 825 823 822 819 817
797 798 800 801 802 804 805 806 807 807 808 810 811 813 814 815 818 819 821 823 824 824 825 826 828 829 830 831 832 832 833 834 835 836 837 838 839 840 840 841 842 842 843 843 843 843 844 843 843 843 843 843 842 842 843 842 842 841 841 840 840 839 838 837 836 835 835 834 834 832 832 831 831 830 829 830 829 827 826 825 824 823 820 818 817
792 794 796 797 798 800 801 802 803 804 805 806 808 809 811 812 815 817 819 820 821 822 823 823 825 826 827 828 829 830 831 832 833 834 835 835 836 837 838 838 839 839 840 840 840 841 841 841 841 840 840 841 841 840 841 840 839 839 838 838 837 837 836 836 835 835 835 834 833 832 831 831 831 830 829 829 828 827 825 824 823 821 819 817 816
788 789 791 793 794 796 797 799 800 801 801 803 804 806 807 809 812 814 816 818 819 820 820 821 822 823 824 825 826 827 828 829 830 831 832 833 834 834 835 835 835 836 836 836 837 837 838 838 838 838 838 839 839 838 838 837 836 836 836 835 835 835 834 834 834 834 834 834 833 832 832 831 831 830 830 829 828 827 825 823 822 820 818 817 816
783 785 787 789 791 793 794 796 797 797 798 799 801 802 804 806 809 812 814 816 817 818 818 819 820 821 822 823 824 824 825 826 827 828 830 831 832 832 832 832 832 833 833 833 834 834 835 835 835 836 837 837 837 836 835 834 833 833 833 833 833 833 833 834 833 833 833 833 833 832 832 831 830 830 830 829 828 827 825 823 822 820 818 817 816
778 780 783 785 787 789 790 792 793 793 794 796 797 799 801 803 806 809 811 813 814 815 815 816 817 818 819 820 821 822 823 823 824 826 827 829 829 829 829 829 830 830 829 830 831 831 832 833 833 834 834 834 834 833 832 831 830 830 830 830 831 832 833 833 833 832 832 832 832 832 831 831 830 829 829 829 828 827 826 824 822 820 819 817 817
773 775 778 781 783 785 786 787 789 790 791 792 794 795 797 800 803 806 808 809 811 811 812 813 814 815 816 817 818 819 820 820 821 823 825 826 827 826 827 827 827 827 826 827 828 829 829 830 831 831 831 830 830 829 828 828 827 827 827 828 829 831 831 831 831 831 831 830 830 830 830 830 830 829 828 828 827 827 826 824 822 820 819 819 818
768 771 774 777 779 780 782 783 785 787 788 789 791 792 794 797 800 802 805 807 808 808 809 810 811 812 813 814 815 816 816 817 818 820 821 823 824 823 824 824 824 824 823 824 826 826 827 827 827 827 827 826 826 825 824 825 825 825 825 826 828 829 829 828 828 829 829 828 828 828 828 828 828 828 827 827 827 827 826 825 822 821 820 819 818